Del Bajio, Mexico

12:07 PM CDT on September 26, 2017 (GMT -0500)
De Guanajuato International

Weather History for MMLO - April, 2014

Change the Weather History Date:

Wednesday, April 30, 2014

  Actual Average Record
Temperature  
Mean Temperature 71 °F -  
Max Temperature 91 °F 88 °F 96 °F (2003)
Min Temperature 51 °F 54 °F 48 °F (2015)
Cooling Degree Days 6    
Growing Degree Days 21 (Base 50)    
Moisture  
Dew Point 39 °F    
Average Humidity 31    
Maximum Humidity 67    
Minimum Humidity 12    
Precipitation  
Precipitation 0.00 in - - ()
Sea Level Pressure  
Sea Level Pressure 29.94 in    
Wind  
Wind Speed 5 mph ()    
Max Wind Speed 21 mph    
Max Gust Speed -    
Visibility 8.7 miles    
Events      
Averages and records for this station are not official NWS values.
T = Trace of Precipitation, MM = Missing Value Source: Averaged Metar Reports

Daily Weather History Graph

Daily Weather History Graph

Search for Another Location

Airport or City:

Trip Planner

Search our weather history database for the weather conditions in past years. The results will help you decide how hot, cold, wet, or windy it might be!

Date:

Astronomy

Apr. 30, 2014 Rise Set
Actual Time 7:16 AM CDT 8:10 PM CDT
Civil Twilight 6:52 AM CDT 8:33 PM CDT
Nautical Twilight 6:25 AM CDT 9:01 PM CDT
Astronomical Twilight 5:57 AM CDT 9:28 PM CDT
Moon 8:22 AM CDT (4/30) 9:44 PM CDT (4/30)
Length of Visible Light 13h 40m
Length of Day
12h 54m
New Moon, 2% of the Moon is Illuminated
Apr 30
New Moon
May 6
First Quarter
May 14
Full
May 21
Last Quarter
May 28
New

Hourly Weather History & Observations

Time (CDT) Temp. Dew Point Humidity Pressure Visibility Wind Dir Wind Speed Gust Speed Precip Events Conditions
12:51 AM 71.6 °F 37.4 °F 29% 29.53 in 8.0 mi SW 8.1 mph - N/A   Mostly Cloudy
1:45 AM 71.6 °F 39.2 °F 31% 30.12 in 8.0 mi WSW 6.9 mph - N/A   Mostly Cloudy
2:45 AM 68.0 °F 39.2 °F 35% 30.12 in 8.0 mi North 3.5 mph - N/A   Mostly Cloudy
3:49 AM 66.2 °F 41.0 °F 40% 29.60 in 8.0 mi Calm Calm - N/A   Mostly Cloudy
4:44 AM 64.4 °F 39.2 °F 40% 30.12 in 8.0 mi Calm Calm - N/A   Mostly Cloudy
5:43 AM 60.8 °F 41.0 °F 48% 30.12 in 8.0 mi NE 5.8 mph - N/A   Mostly Cloudy
6:45 AM 60.8 °F 41.0 °F 48% 29.71 in 8.0 mi NE 5.8 mph - N/A   Mostly Cloudy
7:46 AM 51.8 °F 41.0 °F 67% 30.15 in 8.0 mi Calm Calm - N/A   Mostly Cloudy
8:43 AM 68.0 °F 44.6 °F 43% 30.18 in 8.0 mi Calm Calm - N/A   Scattered Clouds
9:40 AM 75.2 °F 44.6 °F 34% 29.72 in 8.0 mi East 6.9 mph - N/A   Mostly Cloudy
10:40 AM 78.8 °F 41.0 °F 26% 30.18 in 9.0 mi SSE 8.1 mph - N/A   Mostly Cloudy
11:49 AM 80.6 °F 42.8 °F 26% 30.21 in 9.0 mi SSE 5.8 mph - N/A   Overcast
12:45 PM 84.2 °F 41.0 °F 22% 29.77 in 10.0 mi SE 6.9 mph - N/A   Mostly Cloudy
1:43 PM 84.2 °F 42.8 °F 23% 30.15 in 10.0 mi SW 6.9 mph - N/A   Mostly Cloudy
2:43 PM 89.6 °F 41.0 °F 18% 30.09 in 10.0 mi South 8.1 mph - N/A   Mostly Cloudy
3:44 PM 87.8 °F 35.6 °F 16% 29.57 in 10.0 mi WNW 4.6 mph - N/A   Mostly Cloudy
5:50 PM 91.4 °F 32.0 °F 12% 30.00 in 10.0 mi SW 11.5 mph - N/A   Mostly Cloudy
6:44 PM 87.8 °F 30.2 °F 13% 29.54 in 10.0 mi SW 15.0 mph - N/A   Mostly Cloudy
7:54 PM 84.2 °F 33.8 °F 16% 30.03 in 10.0 mi SW 20.7 mph - N/A   Mostly Cloudy
8:41 PM 77.0 °F 37.4 °F 24% 30.06 in 8.0 mi South 9.2 mph - N/A   Mostly Cloudy
9:49 PM 73.4 °F 37.4 °F 27% 29.65 in 8.0 mi Calm Calm - N/A   Mostly Cloudy
10:49 PM 71.6 °F 41.0 °F 33% 30.12 in 8.0 mi Calm Calm - N/A   Mostly Cloudy